Flag for U.S.A. Weather past 2 weeks in Downey, California, U.S.A.

Now
74 °F

Sunny.


Feels Like: 76 °F
Forecast: 68 / 84 °F
Wind: 8 mph from South

Location: Long Beach Airport

Current Time: Jul 25, 2014 at 7:13:07 PM

Latest Report: Jul 25, 2014 at 6:53 PM


Visibility: 9 mi

Pressure: 29.87 "Hg

Humidity: 71%

Dew point: 64 °F

Location of DowneyLocation

Historic Weather in Downey — Graph

°F

Downey temperature yesterday

Maximum temperature yesterday: 91 °F (at 2:53 PM)
Minimum temperature yesterday: 67 °F (at 3:53 AM)
Average temperature yesterday: 77 °F

Past Weeks' High & Low Weather Summary

 TemperatureHumidityPressure
High91 °F (Jul 24, 2:53 PM)90% (Jul 22, 5:53 AM)30.06 "Hg (Jul 22, 5:53 AM)
Low64 °F (Jul 22, 5:53 AM)33% (Jul 23, 3:53 PM)29.73 "Hg (Jul 24, 5:53 PM)
Average72 °F70%29.96 "Hg
* Reported Jul 10 5:53 PM — Jul 25 5:53 PM, Downey, Weather by CustomWeather, © 2014

Note: Actual official high and low records may vary slightly from our data, if they occured in-between our weather recording intervals... More about our weather records

Advertising

Downey weather history for previous 24 hours

 ConditionsComfort  
Time TempWeatherWind HumidityBarometerVisibility
5:53 PM
Jul 25
76 °FSunny.6 mph67%29.86 "Hg9 mi
4:53 PM78 °FSunny.6 mph62%29.87 "Hg10 mi
3:53 PM77 °FSunny.7 mph66%29.88 "Hg10 mi
2:53 PM77 °FSunny.8 mph66%29.90 "Hg10 mi
1:53 PM75 °FSunny.10 mph71%29.91 "Hg10 mi
12:53 PM78 °FSunny.8 mph64%29.90 "Hg10 mi
11:53 AM77 °FSunny.9 mph69%29.90 "Hg10 mi
10:53 AM76 °FSunny.6 mph72%29.90 "Hg10 mi
9:53 AM74 °FPassing clouds.5 mph74%29.90 "Hg10 mi
8:53 AM73 °FPartly sunny.5 mph76%29.89 "Hg10 mi
7:53 AM72 °FOvercast.9 mph78%29.88 "Hg9 mi
6:53 AM71 °FOvercast.10 mph81%29.87 "Hg9 mi
5:53 AM71 °FOvercast.7 mph81%29.86 "Hg10 mi
4:53 AM71 °FOvercast.8 mph84%29.86 "Hg10 mi
3:53 AM71 °FOvercast.8 mph84%29.85 "Hg9 mi
2:53 AM71 °FLow clouds.8 mph87%29.85 "Hg8 mi
1:53 AM69 °FClear.5 mph84%29.85 "Hg9 mi
12:53 AM70 °FClear.7 mph84%29.83 "Hg8 mi
11:53 PM
Jul 24
71 °FClear.5 mph78%29.83 "Hg10 mi
10:53 PM73 °FClear.3 mph74%29.80 "Hg10 mi
9:53 PM77 °FClear.3 mph48%29.79 "Hg10 mi
8:53 PM79 °FSunny.9 mph47%29.77 "Hg10 mi
7:53 PM79 °FSunny.10 mph50%29.74 "Hg10 mi
Weather by CustomWeather, © 2014

See weather overviewHow to use our weather pages